| time (UTC) | temp F | wind direction | speed knots | gust knots | rain 1hr in | rain 24hr in | rain mn in | humidity % | barometer mb |
| 20260509031929 | 47 | 188 | 0.0 | 0.0 | 0.00 | 0.00 | 0.00 | 73 | 1005.8 |
| 20260509031426 | 48 | 152 | 0.9 | 0.9 | 0.00 | 0.00 | 0.00 | 72 | 1006.1 |
| 20260509030923 | 48 | 157 | 0.0 | 0.0 | 0.00 | 0.00 | 0.00 | 70 | 1006.0 |
| 20260509030421 | 48 | 126 | 0.0 | 0.0 | 0.00 | 0.00 | 0.00 | 66 | 1006.1 |
| 20260509025918 | 48 | 165 | 0.0 | 0.9 | 0.00 | 0.00 | 0.00 | 65 | 1006.3 |
| 20260509025413 | 49 | 165 | 0.9 | 0.9 | 0.00 | 0.00 | 0.00 | 67 | 1006.3 |
| 20260509024909 | 50 | 158 | 0.0 | 0.0 | 0.00 | 0.00 | 0.00 | 65 | 1006.3 |
| 20260509024405 | 50 | 145 | 0.9 | 0.9 | 0.00 | 0.00 | 0.00 | 58 | 1006.4 |
| 20260509023902 | 50 | 161 | 0.9 | 0.9 | 0.00 | 0.00 | 0.00 | 50 | 1006.5 |
| 20260509023359 | 51 | 188 | 0.0 | 0.0 | 0.00 | 0.00 | 0.00 | 43 | 1006.6 |
| 20260509022856 | 51 | 135 | 0.9 | 1.7 | 0.00 | 0.00 | 0.00 | 44 | 1006.4 |
| 20260509022353 | 51 | 188 | 0.0 | 0.0 | 0.00 | 0.00 | 0.00 | 40 | 1006.6 |
| 20260509021850 | 51 | 193 | 0.0 | 0.0 | 0.00 | 0.00 | 0.00 | 41 | 1006.5 |
| 20260509021347 | 51 | 158 | 0.9 | 0.9 | 0.00 | 0.00 | 0.00 | 41 | 1006.6 |
| 20260509020845 | 51 | 148 | 0.0 | 0.0 | 0.00 | 0.00 | 0.00 | 40 | 1006.5 |
| 20260509020343 | 52 | 189 | 0.0 | 0.9 | 0.00 | 0.00 | 0.00 | 40 | 1006.4 |
| 20260509015840 | 53 | 143 | 0.9 | 0.9 | 0.00 | 0.00 | 0.00 | 36 | 1006.3 |
| 20260509015338 | 53 | 198 | 0.0 | 0.9 | 0.00 | 0.00 | 0.00 | 36 | 1006.3 |
| 20260509014834 | 53 | 208 | 0.9 | 0.9 | 0.00 | 0.00 | 0.00 | 37 | 1006.5 |
| 20260509014331 | 54 | 195 | 0.0 | 0.0 | 0.00 | 0.00 | 0.00 | 35 | 1006.3 |
| 20260509013828 | 54 | 165 | 0.0 | 0.0 | 0.00 | 0.00 | 0.00 | 34 | 1006.4 |
| 20260509013325 | 55 | 185 | 0.0 | 0.0 | 0.00 | 0.00 | 0.00 | 34 | 1006.2 |
| 20260509012820 | 55 | 192 | 0.0 | 0.0 | 0.00 | 0.00 | 0.00 | 33 | 1006.3 |
| 20260509012317 | 56 | 183 | 0.0 | 0.0 | 0.00 | 0.00 | 0.00 | 33 | 1006.3 |
| 20260509011815 | 56 | 196 | 0.0 | 0.0 | 0.00 | 0.00 | 0.00 | 31 | 1006.4 |
| 20260509011312 | 57 | 191 | 0.0 | 0.0 | 0.00 | 0.00 | 0.00 | 31 | 1006.3 |
| 20260509010810 | 57 | 192 | 0.0 | 0.0 | 0.00 | 0.00 | 0.00 | 30 | 1006.2 |
| 20260509010306 | 58 | 193 | 0.9 | 0.9 | 0.00 | 0.00 | 0.00 | 34 | 1006.0 |
| 20260509005804 | 58 | 196 | 0.9 | 0.9 | 0.00 | 0.00 | 0.00 | 30 | 1006.0 |
| 20260509005305 | 58 | 212 | 0.9 | 1.7 | 0.00 | 0.00 | 0.00 | 29 | 1006.1 |
| 20260509004801 | 59 | 191 | 0.0 | 0.0 | 0.00 | 0.00 | 0.00 | 28 | 1006.1 |
| 20260509004258 | 59 | 196 | 1.7 | 1.7 | 0.00 | 0.00 | 0.00 | 29 | 1005.8 |
| 20260509003756 | 59 | 225 | 3.5 | 4.3 | 0.00 | 0.00 | 0.00 | 29 | 1006.1 |
| 20260509003254 | 60 | 195 | 0.9 | 1.7 | 0.00 | 0.00 | 0.00 | 29 | 1006.1 |
| 20260509002751 | 60 | 196 | 1.7 | 1.7 | 0.00 | 0.00 | 0.00 | 29 | 1005.9 |
| 20260509002248 | 60 | 210 | 1.7 | 1.7 | 0.00 | 0.00 | 0.00 | 27 | 1005.8 |
| 20260509001746 | 60 | 234 | 1.7 | 1.7 | 0.00 | 0.00 | 0.00 | 27 | 1005.8 |
| 20260509001241 | 61 | 221 | 0.9 | 1.7 | 0.00 | 0.00 | 0.00 | 28 | 1005.8 |
| 20260509000739 | 61 | 194 | 0.9 | 1.7 | 0.00 | 0.00 | 0.00 | 26 | 1005.9 |
| 20260509000236 | 61 | 201 | 0.9 | 0.9 | 0.00 | 0.00 | 0.00 | 27 | 1005.7 |
| 20260508235733 | 62 | 173 | 0.9 | 0.9 | 0.00 | 0.00 | 0.00 | 28 | 1005.9 |
| 20260508235230 | 62 | 24 | 1.7 | 2.6 | 0.00 | 0.00 | 0.00 | 30 | 1005.9 |
| 20260508234727 | 62 | 251 | 3.5 | 5.2 | 0.00 | 0.00 | 0.00 | 27 | 1005.8 |
| 20260508234223 | 62 | 232 | 3.5 | 4.3 | 0.00 | 0.00 | 0.00 | 27 | 1005.7 |
| 20260508233723 | 62 | 255 | 5.2 | 7.0 | 0.00 | 0.00 | 0.00 | 29 | 1005.9 |
| 20260508233221 | 62 | 255 | 5.2 | 7.8 | 0.00 | 0.00 | 0.00 | 31 | 1005.7 |
| 20260508232718 | 63 | 229 | 3.5 | 4.3 | 0.00 | 0.00 | 0.00 | 29 | 1005.8 |
| 20260508232214 | 63 | 290 | 2.6 | 2.6 | 0.00 | 0.00 | 0.00 | 25 | 1005.6 |
| 20260508231712 | 64 | 267 | 4.3 | 5.2 | 0.00 | 0.00 | 0.00 | 29 | 1005.3 |
| 20260508231209 | 63 | 232 | 5.2 | 6.1 | 0.00 | 0.00 | 0.00 | 26 | 1005.7 |
| 20260508230706 | 64 | 238 | 5.2 | 7.0 | 0.00 | 0.00 | 0.00 | 30 | 1005.6 |
| 20260508230202 | 64 | 209 | 1.7 | 4.3 | 0.00 | 0.00 | 0.00 | 26 | 1005.2 |
| 20260508225700 | 63 | 282 | 6.1 | 7.0 | 0.00 | 0.00 | 0.00 | 29 | 1005.7 |
| 20260508225156 | 64 | 231 | 5.2 | 7.0 | 0.00 | 0.00 | 0.00 | 29 | 1005.3 |
| 20260508224654 | 64 | 259 | 7.0 | 8.7 | 0.00 | 0.00 | 0.00 | 26 | 1005.5 |
| 20260508224151 | 64 | 276 | 7.8 | 8.7 | 0.00 | 0.00 | 0.00 | 25 | 1005.1 |
| 20260508223649 | 64 | 247 | 4.3 | 4.3 | 0.00 | 0.00 | 0.00 | 26 | 1005.5 |
| 20260508223146 | 64 | 202 | 1.7 | 2.6 | 0.00 | 0.00 | 0.00 | 25 | 1005.5 |
| 20260508222643 | 64 | 234 | 7.8 | 8.7 | 0.00 | 0.00 | 0.00 | 29 | 1005.5 |
| 20260508222140 | 64 | 207 | 1.7 | 2.6 | 0.00 | 0.00 | 0.00 | 31 | 1005.6 |
| 20260508221636 | 63 | 222 | 5.2 | 6.1 | 0.00 | 0.00 | 0.00 | 34 | 1005.6 |
| 20260508221132 | 63 | 258 | 6.1 | 7.0 | 0.00 | 0.00 | 0.00 | 32 | 1005.6 |
| 20260508220629 | 63 | 277 | 7.8 | 8.7 | 0.00 | 0.00 | 0.00 | 30 | 1005.5 |
| 20260508220126 | 63 | 240 | 5.2 | 6.1 | 0.00 | 0.00 | 0.00 | 34 | 1005.5 |
| 20260508215622 | 63 | 196 | 7.8 | 8.7 | 0.00 | 0.00 | 0.00 | 37 | 1005.7 |
| 20260508215119 | 63 | 244 | 6.1 | 8.7 | 0.00 | 0.00 | 0.00 | 34 | 1005.5 |
| 20260508214616 | 63 | 250 | 1.7 | 1.7 | 0.00 | 0.00 | 0.00 | 32 | 1005.6 |
| 20260508214113 | 62 | 280 | 7.0 | 7.8 | 0.00 | 0.00 | 0.00 | 36 | 1005.2 |
| 20260508213610 | 63 | 232 | 7.0 | 7.8 | 0.00 | 0.00 | 0.00 | 37 | 1005.5 |
| 20260508213106 | 62 | 235 | 7.0 | 8.7 | 0.00 | 0.00 | 0.00 | 37 | 1005.7 |
| 20260508212602 | 62 | 215 | 6.1 | 7.8 | 0.00 | 0.00 | 0.00 | 39 | 1005.9 |
| 20260508212059 | 63 | 235 | 5.2 | 6.1 | 0.00 | 0.00 | 0.00 | 37 | 1005.8 |
| 20260508211554 | 63 | 225 | 6.1 | 8.7 | 0.00 | 0.00 | 0.00 | 36 | 1005.7 |
| 20260508211051 | 62 | 229 | 2.6 | 2.6 | 0.00 | 0.00 | 0.00 | 32 | 1005.9 |
| 20260508210548 | 63 | 276 | 9.6 | 12.2 | 0.00 | 0.00 | 0.00 | 34 | 1006.0 |
| 20260508210045 | 63 | 287 | 7.8 | 9.6 | 0.00 | 0.00 | 0.00 | 34 | 1005.8 |
| 20260508205542 | 63 | 264 | 5.2 | 7.0 | 0.00 | 0.00 | 0.00 | 32 | 1005.6 |
| 20260508205038 | 62 | 230 | 4.3 | 6.1 | 0.00 | 0.00 | 0.00 | 31 | 1006.0 |
| 20260508204535 | 62 | 208 | 3.5 | 4.3 | 0.00 | 0.00 | 0.00 | 33 | 1005.9 |
| 20260508204031 | 62 | 218 | 2.6 | 2.6 | 0.00 | 0.00 | 0.00 | 33 | 1006.3 |
| 20260508203527 | 62 | 261 | 8.7 | 11.3 | 0.00 | 0.00 | 0.00 | 32 | 1006.1 |
| 20260508203023 | 62 | 233 | 2.6 | 2.6 | 0.00 | 0.00 | 0.00 | 33 | 1006.2 |
| 20260508202520 | 61 | 260 | 6.1 | 8.7 | 0.00 | 0.00 | 0.00 | 37 | 1006.6 |
| 20260508202017 | 61 | 213 | 4.3 | 5.2 | 0.00 | 0.00 | 0.00 | 35 | 1006.5 |
| 20260508201514 | 61 | 253 | 8.7 | 9.6 | 0.00 | 0.00 | 0.00 | 41 | 1006.4 |
| 20260508201010 | 61 | 284 | 6.1 | 7.8 | 0.00 | 0.00 | 0.00 | 35 | 1006.7 |
| 20260508200508 | 61 | 271 | 6.1 | 6.1 | 0.00 | 0.00 | 0.00 | 35 | 1006.9 |
| 20260508200003 | 61 | 265 | 5.2 | 7.8 | 0.00 | 0.00 | 0.00 | 34 | 1006.6 |
| 20260508195500 | 61 | 248 | 1.7 | 2.6 | 0.00 | 0.00 | 0.00 | 33 | 1006.9 |
| 20260508194956 | 61 | 283 | 7.8 | 8.7 | 0.00 | 0.00 | 0.00 | 37 | 1007.2 |
| 20260508194453 | 61 | 266 | 4.3 | 6.1 | 0.00 | 0.00 | 0.00 | 38 | 1007.2 |
| 20260508193950 | 60 | 231 | 2.6 | 2.6 | 0.00 | 0.00 | 0.00 | 34 | 1007.2 |
| 20260508193447 | 60 | 195 | 6.1 | 7.8 | 0.00 | 0.00 | 0.00 | 39 | 1007.3 |
| 20260508192943 | 60 | 230 | 7.0 | 7.8 | 0.00 | 0.00 | 0.00 | 38 | 1007.1 |
| 20260508192440 | 61 | 275 | 9.6 | 12.2 | 0.00 | 0.00 | 0.00 | 35 | 1007.3 |
| 20260508191937 | 61 | 252 | 6.1 | 7.8 | 0.00 | 0.00 | 0.00 | 39 | 1007.5 |
| 20260508191435 | 60 | 276 | 4.3 | 6.1 | 0.00 | 0.00 | 0.00 | 34 | 1007.5 |
| 20260508190931 | 61 | 310 | 6.1 | 9.6 | 0.00 | 0.00 | 0.00 | 35 | 1007.6 |
| 20260508190428 | 60 | 219 | 0.9 | 0.9 | 0.00 | 0.00 | 0.00 | 35 | 1007.5 |
| 20260508185924 | 60 | 226 | 4.3 | 5.2 | 0.00 | 0.00 | 0.00 | 42 | 1007.6 |
| 20260508185422 | 60 | 262 | 5.2 | 6.1 | 0.00 | 0.00 | 0.00 | 38 | 1007.9 |
| 20260508184919 | 60 | 282 | 5.2 | 6.1 | 0.00 | 0.00 | 0.00 | 38 | 1007.7 |
| 20260508184417 | 59 | 276 | 5.2 | 6.1 | 0.00 | 0.00 | 0.00 | 34 | 1007.9 |
| 20260508183913 | 59 | 257 | 4.3 | 5.2 | 0.00 | 0.00 | 0.00 | 37 | 1007.9 |
| 20260508183410 | 60 | 248 | 8.7 | 9.6 | 0.00 | 0.00 | 0.00 | 42 | 1008.2 |
| 20260508182905 | 60 | 56 | 2.6 | 4.3 | 0.00 | 0.00 | 0.00 | 34 | 1007.9 |
| 20260508182403 | 59 | 222 | 6.1 | 8.7 | 0.00 | 0.00 | 0.00 | 37 | 1008.0 |
| 20260508181858 | 59 | 255 | 3.5 | 5.2 | 0.00 | 0.00 | 0.00 | 34 | 1008.2 |
| 20260508181355 | 59 | 284 | 2.6 | 2.6 | 0.00 | 0.00 | 0.00 | 34 | 1008.2 |
| 20260508180852 | 59 | 275 | 3.5 | 6.1 | 0.00 | 0.00 | 0.00 | 36 | 1008.3 |
| 20260508180349 | 58 | 198 | 0.0 | 0.9 | 0.00 | 0.00 | 0.00 | 36 | 1008.4 |
| 20260508175844 | 58 | 209 | 6.1 | 7.0 | 0.00 | 0.00 | 0.00 | 34 | 1008.5 |
| 20260508175341 | 59 | 260 | 7.0 | 9.6 | 0.00 | 0.00 | 0.00 | 39 | 1008.5 |
| 20260508174840 | 58 | 200 | 1.7 | 1.7 | 0.00 | 0.00 | 0.00 | 40 | 1008.7 |
| 20260508174337 | 60 | 279 | 7.8 | 11.3 | 0.00 | 0.00 | 0.00 | 39 | 1008.6 |
| 20260508173833 | 58 | 194 | 0.0 | 0.0 | 0.00 | 0.00 | 0.00 | 36 | 1008.9 |
| 20260508173330 | 57 | 235 | 3.5 | 4.3 | 0.00 | 0.00 | 0.00 | 38 | 1008.9 |
| 20260508172826 | 57 | 261 | 8.7 | 9.6 | 0.00 | 0.00 | 0.00 | 42 | 1008.8 |
| 20260508172323 | 57 | 252 | 7.8 | 8.7 | 0.00 | 0.00 | 0.00 | 40 | 1008.9 |
| 20260508171820 | 57 | 231 | 6.1 | 7.0 | 0.00 | 0.00 | 0.00 | 39 | 1009.1 |
| 20260508171316 | 57 | 229 | 1.7 | 1.7 | 0.00 | 0.00 | 0.00 | 36 | 1009.5 |
| 20260508170813 | 57 | 281 | 5.2 | 6.1 | 0.00 | 0.00 | 0.00 | 40 | 1009.2 |
| 20260508170311 | 57 | 247 | 6.1 | 8.7 | 0.00 | 0.00 | 0.00 | 40 | 1009.3 |
| 20260508165808 | 57 | 249 | 4.3 | 6.1 | 0.00 | 0.00 | 0.00 | 39 | 1009.6 |
| 20260508165307 | 56 | 256 | 2.6 | 2.6 | 0.00 | 0.00 | 0.00 | 36 | 1009.6 |
| 20260508164801 | 56 | 256 | 4.3 | 5.2 | 0.00 | 0.00 | 0.00 | 41 | 1009.7 |
| 20260508164257 | 56 | 286 | 6.1 | 6.1 | 0.00 | 0.00 | 0.00 | 38 | 1009.7 |
| 20260508163755 | 56 | 258 | 4.3 | 5.2 | 0.00 | 0.00 | 0.00 | 40 | 1009.9 |
| 20260508163253 | 56 | 247 | 5.2 | 6.1 | 0.00 | 0.00 | 0.00 | 37 | 1009.7 |
| 20260508162748 | 56 | 284 | 8.7 | 8.7 | 0.00 | 0.00 | 0.00 | 42 | 1009.8 |
| 20260508162246 | 56 | 275 | 5.2 | 7.0 | 0.00 | 0.00 | 0.00 | 38 | 1009.7 |
| 20260508161743 | 56 | 251 | 7.8 | 8.7 | 0.00 | 0.00 | 0.00 | 38 | 1009.7 |
| 20260508161240 | 57 | 234 | 3.5 | 4.3 | 0.00 | 0.00 | 0.00 | 47 | 1009.9 |
| 20260508160737 | 57 | 193 | 2.6 | 2.6 | 0.00 | 0.00 | 0.00 | 36 | 1009.9 |
| 20260508160236 | 55 | 202 | 0.9 | 1.7 | 0.00 | 0.00 | 0.00 | 40 | 1010.1 |
| 20260508155732 | 55 | 227 | 4.3 | 5.2 | 0.00 | 0.00 | 0.00 | 43 | 1010.2 |
| 20260508155229 | 55 | 265 | 6.1 | 7.8 | 0.00 | 0.00 | 0.00 | 45 | 1010.3 |
| 20260508154726 | 55 | 231 | 2.6 | 2.6 | 0.00 | 0.00 | 0.00 | 46 | 1010.4 |
| 20260508154223 | 55 | 265 | 3.5 | 4.3 | 0.00 | 0.00 | 0.00 | 45 | 1010.2 |
| 20260508153720 | 54 | 180 | 0.9 | 1.7 | 0.00 | 0.00 | 0.00 | 43 | 1010.2 |
| 20260508153217 | 54 | 230 | 2.6 | 2.6 | 0.00 | 0.00 | 0.00 | 47 | 1010.4 |
| 20260508152714 | 54 | 197 | 1.7 | 1.7 | 0.00 | 0.00 | 0.00 | 52 | 1010.2 |
| 20260508152209 | 55 | 208 | 1.7 | 2.6 | 0.00 | 0.00 | 0.00 | 51 | 1010.1 |
| 20260508151706 | 56 | 180 | 0.9 | 0.9 | 0.00 | 0.00 | 0.00 | 42 | 1010.4 |
| 20260508151203 | 54 | 185 | 0.0 | 0.0 | 0.00 | 0.00 | 0.00 | 44 | 1010.3 |
| 20260508150659 | 53 | 209 | 1.7 | 1.7 | 0.00 | 0.00 | 0.00 | 47 | 1010.4 |
| 20260508150156 | 54 | 205 | 4.3 | 5.2 | 0.00 | 0.00 | 0.00 | 49 | 1010.3 |
| 20260508145652 | 53 | 211 | 0.9 | 0.9 | 0.00 | 0.00 | 0.00 | 48 | 1010.4 |
| 20260508145148 | 53 | 226 | 1.7 | 1.7 | 0.00 | 0.00 | 0.00 | 50 | 1010.4 |
| 20260508144646 | 53 | 190 | 1.7 | 1.7 | 0.00 | 0.00 | 0.00 | 52 | 1010.3 |
| 20260508144144 | 53 | 171 | 1.7 | 1.7 | 0.00 | 0.00 | 0.00 | 52 | 1010.6 |
| 20260508143641 | 53 | 158 | 1.7 | 1.7 | 0.00 | 0.00 | 0.00 | 53 | 1010.4 |
| 20260508143137 | 53 | 134 | 2.6 | 2.6 | 0.00 | 0.00 | 0.00 | 53 | 1010.5 |
| 20260508142634 | 52 | 157 | 1.7 | 1.7 | 0.00 | 0.00 | 0.00 | 54 | 1010.8 |
| 20260508142131 | 52 | 177 | 1.7 | 1.7 | 0.00 | 0.00 | 0.00 | 54 | 1010.7 |
| 20260508141627 | 52 | 160 | 0.0 | 0.0 | 0.00 | 0.00 | 0.00 | 55 | 1010.6 |
| 20260508141125 | 53 | 175 | 1.7 | 1.7 | 0.00 | 0.00 | 0.00 | 54 | 1010.6 |
| 20260508140622 | 52 | 167 | 0.9 | 0.9 | 0.00 | 0.00 | 0.00 | 61 | 1010.9 |
| 20260508140119 | 51 | 182 | 0.0 | 0.0 | 0.00 | 0.00 | 0.00 | 59 | 1010.9 |
| 20260508135614 | 51 | 190 | 1.7 | 1.7 | 0.00 | 0.00 | 0.00 | 61 | 1010.9 |
| 20260508135110 | 51 | 162 | 1.7 | 1.7 | 0.00 | 0.00 | 0.00 | 62 | 1010.9 |
| 20260508134608 | 51 | 197 | 1.7 | 1.7 | 0.00 | 0.00 | 0.00 | 62 | 1011.0 |
| 20260508134105 | 50 | 163 | 1.7 | 1.7 | 0.00 | 0.00 | 0.00 | 62 | 1010.9 |
| 20260508133601 | 50 | 186 | 0.9 | 1.7 | 0.00 | 0.00 | 0.00 | 65 | 1011.1 |
| 20260508133059 | 50 | 178 | 2.6 | 4.3 | 0.00 | 0.00 | 0.00 | 66 | 1011.1 |
| 20260508132556 | 50 | 181 | 2.6 | 2.6 | 0.00 | 0.00 | 0.00 | 64 | 1011.2 |
| 20260508132053 | 49 | 169 | 1.7 | 1.7 | 0.00 | 0.00 | 0.00 | 64 | 1011.1 |
| 20260508131548 | 49 | 172 | 2.6 | 2.6 | 0.00 | 0.00 | 0.00 | 64 | 1011.2 |
| 20260508131045 | 49 | 182 | 0.0 | 0.9 | 0.00 | 0.00 | 0.00 | 65 | 1011.1 |
| 20260508130542 | 49 | 177 | 0.9 | 0.9 | 0.00 | 0.00 | 0.00 | 65 | 1011.0 |
| 20260508130039 | 48 | 169 | 1.7 | 1.7 | 0.00 | 0.00 | 0.00 | 64 | 1011.1 |
| 20260508125534 | 48 | 183 | 0.9 | 0.9 | 0.00 | 0.00 | 0.00 | 66 | 1011.1 |
| 20260508125032 | 47 | 180 | 1.7 | 1.7 | 0.00 | 0.00 | 0.00 | 68 | 1011.1 |
| 20260508124530 | 46 | 157 | 2.6 | 2.6 | 0.00 | 0.00 | 0.00 | 73 | 1010.9 |
| 20260508124027 | 46 | 167 | 1.7 | 1.7 | 0.00 | 0.00 | 0.00 | 74 | 1011.0 |
| 20260508123526 | 45 | 177 | 0.9 | 0.9 | 0.00 | 0.00 | 0.00 | 75 | 1011.0 |
| 20260508123022 | 45 | 163 | 2.6 | 2.6 | 0.00 | 0.00 | 0.00 | 75 | 1011.0 |
| 20260508122519 | 44 | 162 | 2.6 | 2.6 | 0.00 | 0.00 | 0.00 | 77 | 1011.0 |
| 20260508122015 | 43 | 177 | 0.0 | 0.0 | 0.00 | 0.00 | 0.00 | 78 | 1010.8 |
| 20260508121514 | 43 | 183 | 0.9 | 0.9 | 0.00 | 0.00 | 0.00 | 80 | 1010.8 |
| 20260508121012 | 42 | 191 | 0.9 | 0.9 | 0.00 | 0.00 | 0.00 | 83 | 1010.9 |
| 20260508120509 | 42 | 181 | 0.0 | 0.0 | 0.00 | 0.00 | 0.00 | 85 | 1010.6 |
| 20260508120007 | 41 | 177 | 0.0 | 0.0 | 0.00 | 0.00 | 0.00 | 86 | 1010.7 |
| 20260508115504 | 41 | 187 | 0.0 | 0.9 | 0.00 | 0.00 | 0.00 | 88 | 1010.8 |
| 20260508115000 | 40 | 186 | 0.9 | 0.9 | 0.00 | 0.00 | 0.00 | 91 | 1010.8 |
| 20260508114458 | 40 | 190 | 0.0 | 0.0 | 0.00 | 0.00 | 0.00 | 94 | 1010.5 |
| 20260508113954 | 39 | 189 | 0.0 | 0.0 | 0.00 | 0.00 | 0.00 | 95 | 1010.5 |
| 20260508113452 | 39 | 172 | 0.0 | 0.0 | 0.00 | 0.00 | 0.00 | 95 | 1010.4 |
| 20260508112949 | 38 | 184 | 0.0 | 0.0 | 0.00 | 0.00 | 0.00 | 95 | 1010.4 |
| 20260508112445 | 37 | 189 | 0.0 | 0.0 | 0.00 | 0.00 | 0.00 | 95 | 1010.2 |
| 20260508111942 | 37 | 183 | 0.0 | 0.0 | 0.00 | 0.00 | 0.00 | 95 | 1010.4 |
| 20260508111439 | 36 | 179 | 0.0 | 0.0 | 0.00 | 0.00 | 0.00 | 95 | 1010.3 |
| 20260508110936 | 35 | 185 | 0.0 | 0.0 | 0.00 | 0.00 | 0.00 | 95 | 1010.6 |
| 20260508110434 | 35 | 186 | 0.0 | 0.0 | 0.00 | 0.00 | 0.00 | 95 | 1010.2 |
| 20260508105933 | 35 | 166 | 0.0 | 0.0 | 0.00 | 0.00 | 0.00 | 95 | 1010.3 |
| 20260508105430 | 34 | 147 | 0.0 | 0.0 | 0.00 | 0.00 | 0.00 | 94 | 1010.3 |
| 20260508104927 | 34 | 136 | 0.0 | 0.0 | 0.00 | 0.00 | 0.00 | 94 | 1010.2 |
| 20260508104425 | 35 | 136 | 0.0 | 0.0 | 0.00 | 0.00 | 0.00 | 94 | 1010.2 |
| 20260508103921 | 34 | 140 | 0.0 | 0.0 | 0.00 | 0.00 | 0.00 | 94 | 1010.0 |
| 20260508103418 | 34 | 138 | 0.0 | 0.0 | 0.00 | 0.00 | 0.00 | 94 | 1010.1 |
| 20260508102915 | 35 | 138 | 0.0 | 0.0 | 0.00 | 0.00 | 0.00 | 94 | 1010.0 |
| 20260508102414 | 35 | 148 | 0.0 | 0.0 | 0.00 | 0.00 | 0.00 | 94 | 1010.0 |
| 20260508101911 | 35 | 170 | 0.0 | 0.0 | 0.00 | 0.00 | 0.00 | 94 | 1010.3 |
| 20260508101408 | 35 | 161 | 0.0 | 0.0 | 0.00 | 0.00 | 0.00 | 94 | 1010.3 |
| 20260508100905 | 35 | 139 | 0.0 | 0.0 | 0.00 | 0.00 | 0.00 | 94 | 1009.9 |
| 20260508100404 | 35 | 136 | 0.0 | 0.0 | 0.00 | 0.00 | 0.00 | 93 | 1010.3 |
| 20260508095859 | 35 | 125 | 0.0 | 0.0 | 0.00 | 0.00 | 0.00 | 93 | 1010.0 |
| 20260508095358 | 35 | 125 | 0.0 | 0.0 | 0.00 | 0.00 | 0.00 | 93 | 1010.5 |
| 20260508094854 | 35 | 127 | 0.0 | 0.0 | 0.00 | 0.00 | 0.00 | 93 | 1010.3 |
| 20260508094351 | 35 | 131 | 0.0 | 0.0 | 0.00 | 0.00 | 0.00 | 93 | 1010.1 |
| 20260508093848 | 35 | 133 | 0.0 | 0.0 | 0.00 | 0.00 | 0.00 | 93 | 1010.2 |
| 20260508093345 | 36 | 130 | 0.0 | 0.0 | 0.00 | 0.00 | 0.00 | 92 | 1010.4 |
| 20260508092843 | 36 | 128 | 0.0 | 0.0 | 0.00 | 0.00 | 0.00 | 92 | 1010.3 |
| 20260508092340 | 37 | 148 | 0.0 | 0.0 | 0.00 | 0.00 | 0.00 | 92 | 1010.3 |
| 20260508091838 | 37 | 149 | 0.0 | 0.0 | 0.00 | 0.00 | 0.00 | 92 | 1010.2 |
| 20260508091334 | 37 | 162 | 0.0 | 0.0 | 0.00 | 0.00 | 0.00 | 92 | 1010.2 |
| 20260508090832 | 37 | 143 | 0.0 | 0.0 | 0.00 | 0.00 | 0.00 | 92 | 1010.3 |
| 20260508090331 | 37 | 143 | 0.0 | 0.0 | 0.00 | 0.00 | 0.00 | 91 | 1010.4 |
| 20260508085831 | 37 | 174 | 0.0 | 0.0 | 0.00 | 0.00 | 0.00 | 91 | 1010.3 |
| 20260508085329 | 37 | 185 | 0.0 | 0.0 | 0.00 | 0.00 | 0.00 | 91 | 1010.2 |
| 20260508084825 | 37 | 187 | 0.0 | 0.0 | 0.00 | 0.00 | 0.00 | 91 | 1010.4 |
| 20260508084322 | 38 | 151 | 0.0 | 0.0 | 0.00 | 0.00 | 0.00 | 91 | 1010.4 |
| 20260508083820 | 38 | 184 | 0.0 | 0.0 | 0.00 | 0.00 | 0.00 | 90 | 1010.3 |
| 20260508083317 | 38 | 121 | 0.0 | 0.0 | 0.00 | 0.00 | 0.00 | 90 | 1010.5 |
| 20260508082816 | 39 | 120 | 0.0 | 0.0 | 0.00 | 0.00 | 0.00 | 90 | 1010.5 |
| 20260508082315 | 39 | 134 | 0.0 | 0.0 | 0.00 | 0.00 | 0.00 | 89 | 1010.4 |
| 20260508081812 | 39 | 148 | 0.0 | 0.0 | 0.00 | 0.00 | 0.00 | 89 | 1010.4 |
| 20260508081308 | 40 | 144 | 0.0 | 0.0 | 0.00 | 0.00 | 0.00 | 89 | 1010.3 |
| 20260508080806 | 40 | 173 | 0.0 | 0.0 | 0.00 | 0.00 | 0.00 | 88 | 1010.5 |
| 20260508080304 | 40 | 142 | 0.0 | 0.0 | 0.00 | 0.00 | 0.00 | 87 | 1010.4 |
| 20260508075759 | 40 | 183 | 0.0 | 0.0 | 0.00 | 0.00 | 0.00 | 87 | 1010.5 |
| 20260508075256 | 40 | 162 | 0.0 | 0.0 | 0.00 | 0.00 | 0.00 | 86 | 1010.5 |
| 20260508074754 | 40 | 141 | 0.0 | 0.0 | 0.00 | 0.00 | 0.00 | 86 | 1010.5 |
| 20260508074251 | 41 | 167 | 0.0 | 0.0 | 0.00 | 0.00 | 0.00 | 85 | 1010.4 |
| 20260508073748 | 41 | 149 | 0.0 | 0.0 | 0.00 | 0.00 | 0.00 | 85 | 1010.6 |
| 20260508073246 | 42 | 181 | 0.0 | 0.0 | 0.00 | 0.00 | 0.00 | 86 | 1010.5 |
| 20260508072742 | 42 | 158 | 0.0 | 0.0 | 0.00 | 0.00 | 0.00 | 85 | 1010.6 |
| 20260508072239 | 42 | 179 | 0.0 | 0.0 | 0.00 | 0.00 | 0.00 | 84 | 1010.5 |
| 20260508071736 | 42 | 174 | 0.0 | 0.0 | 0.00 | 0.00 | 0.00 | 85 | 1010.5 |
| 20260508071235 | 42 | 155 | 0.0 | 0.0 | 0.00 | 0.00 | 0.00 | 84 | 1010.7 |
| 20260508070732 | 42 | 188 | 0.0 | 0.0 | 0.00 | 0.00 | 0.00 | 84 | 1010.5 |
| 20260508070231 | 42 | 183 | 0.0 | 0.0 | 0.00 | 0.00 | 0.00 | 83 | 1010.4 |
| 20260508065727 | 42 | 184 | 0.0 | 0.0 | 0.00 | 0.00 | 0.00 | 82 | 1010.5 |
| 20260508065225 | 42 | 171 | 0.0 | 0.0 | 0.00 | 0.00 | 0.00 | 81 | 1010.4 |
| 20260508064722 | 42 | 175 | 0.0 | 0.0 | 0.00 | 0.00 | 0.00 | 81 | 1010.8 |
| 20260508064221 | 42 | 154 | 0.0 | 0.0 | 0.00 | 0.00 | 0.00 | 80 | 1010.6 |
| 20260508063718 | 42 | 172 | 0.0 | 0.0 | 0.00 | 0.00 | 0.00 | 80 | 1010.9 |
| 20260508063216 | 42 | 189 | 0.0 | 0.0 | 0.00 | 0.00 | 0.00 | 79 | 1010.7 |
| 20260508062713 | 42 | 188 | 0.0 | 0.0 | 0.00 | 0.00 | 0.00 | 80 | 1010.7 |
| 20260508062210 | 42 | 190 | 0.0 | 0.0 | 0.00 | 0.00 | 0.00 | 79 | 1010.8 |
| 20260508061707 | 42 | 193 | 0.0 | 0.0 | 0.00 | 0.00 | 0.00 | 80 | 1010.7 |
| 20260508061204 | 42 | 189 | 0.0 | 0.0 | 0.00 | 0.00 | 0.00 | 79 | 1011.0 |
| 20260508060702 | 42 | 175 | 0.0 | 0.0 | 0.00 | 0.00 | 0.00 | 78 | 1011.0 |
| 20260508060158 | 42 | 193 | 0.0 | 0.0 | 0.00 | 0.00 | 0.00 | 78 | 1010.9 |
| 20260508055653 | 42 | 181 | 0.0 | 0.0 | 0.00 | 0.00 | 0.00 | 78 | 1011.2 |
| 20260508055151 | 42 | 177 | 0.0 | 0.0 | 0.00 | 0.00 | 0.00 | 77 | 1011.0 |
| 20260508054647 | 42 | 185 | 0.0 | 0.0 | 0.00 | 0.00 | 0.00 | 77 | 1011.0 |
| 20260508054145 | 42 | 184 | 0.0 | 0.0 | 0.00 | 0.00 | 0.00 | 77 | 1011.0 |
| 20260508053642 | 42 | 192 | 0.0 | 0.0 | 0.00 | 0.00 | 0.00 | 76 | 1011.1 |
| 20260508053139 | 42 | 184 | 0.0 | 0.0 | 0.00 | 0.00 | 0.00 | 76 | 1011.1 |
| 20260508052636 | 42 | 188 | 0.0 | 0.0 | 0.00 | 0.00 | 0.00 | 76 | 1010.9 |
| 20260508052133 | 42 | 186 | 0.0 | 0.0 | 0.00 | 0.00 | 0.00 | 76 | 1011.0 |
| 20260508051629 | 42 | 193 | 0.0 | 0.0 | 0.00 | 0.00 | 0.00 | 76 | 1010.8 |
| 20260508051125 | 43 | 188 | 0.0 | 0.0 | 0.00 | 0.00 | 0.00 | 77 | 1010.9 |
| 20260508050621 | 42 | 181 | 0.0 | 0.0 | 0.00 | 0.00 | 0.00 | 76 | 1011.0 |
| 20260508050119 | 42 | 195 | 0.0 | 0.0 | 0.00 | 0.00 | 0.00 | 76 | 1010.9 |
| 20260508045615 | 42 | 187 | 0.0 | 0.0 | 0.00 | 0.00 | 0.00 | 76 | 1011.0 |
| 20260508045113 | 42 | 188 | 0.0 | 0.0 | 0.00 | 0.00 | 0.00 | 77 | 1010.6 |
| 20260508044610 | 42 | 154 | 0.0 | 0.0 | 0.00 | 0.00 | 0.00 | 76 | 1010.9 |
| 20260508044106 | 42 | 166 | 0.0 | 0.0 | 0.00 | 0.00 | 0.00 | 76 | 1010.7 |
| 20260508043602 | 42 | 188 | 0.0 | 0.0 | 0.00 | 0.00 | 0.00 | 76 | 1010.8 |
| 20260508043100 | 42 | 188 | 0.0 | 0.0 | 0.00 | 0.00 | 0.00 | 76 | 1010.8 |
| 20260508042556 | 43 | 177 | 0.0 | 0.0 | 0.00 | 0.00 | 0.00 | 75 | 1011.1 |
| 20260508042054 | 43 | 187 | 0.0 | 0.0 | 0.00 | 0.00 | 0.00 | 74 | 1010.8 |
| 20260508041550 | 43 | 152 | 0.9 | 0.9 | 0.00 | 0.00 | 0.00 | 74 | 1010.8 |
| 20260508041047 | 44 | 147 | 0.0 | 0.0 | 0.00 | 0.00 | 0.00 | 73 | 1010.7 |
| 20260508040543 | 44 | 167 | 0.0 | 0.0 | 0.00 | 0.00 | 0.00 | 72 | 1010.6 |
| 20260508040041 | 44 | 140 | 0.0 | 0.0 | 0.00 | 0.00 | 0.00 | 71 | 1010.6 |
| 20260508035538 | 44 | 154 | 0.0 | 0.9 | 0.00 | 0.00 | 0.00 | 71 | 1010.8 |
| 20260508035035 | 45 | 149 | 0.0 | 0.9 | 0.00 | 0.00 | 0.00 | 70 | 1010.6 |
| 20260508034532 | 45 | 184 | 0.0 | 0.0 | 0.00 | 0.00 | 0.00 | 70 | 1010.7 |
| 20260508034029 | 46 | 189 | 0.0 | 0.0 | 0.00 | 0.00 | 0.00 | 70 | 1010.7 |
| 20260508033527 | 46 | 177 | 0.0 | 0.0 | 0.00 | 0.00 | 0.00 | 70 | 1010.9 |
| 20260508033025 | 46 | 189 | 0.0 | 0.0 | 0.00 | 0.00 | 0.00 | 71 | 1010.6 |
| 20260508032521 | 46 | 195 | 0.0 | 0.0 | 0.00 | 0.00 | 0.00 | 70 | 1010.8 |